Burnet, TX

2:43 PM CDT on October 22, 2017 (GMT -0500)
Burnet Municipal-Craddock

Weather History for KBMQ - March, 2014

Change the Weather History Date:

Sunday, March 16, 2014

  Actual Average Record
Temperature  
Mean Temperature 52 °F -  
Max Temperature 59 °F 66 °F 84 °F (2009)
Min Temperature 46 °F 46 °F 37 °F (2001)
Degree Days  
Heating Degree Days 12    
Growing Degree Days 2 (Base 50)    
Moisture  
Dew Point 40 °F    
Average Humidity 63    
Maximum Humidity 89    
Minimum Humidity 39    
Precipitation  
Precipitation 0.00 in - - ()
Sea Level Pressure  
Sea Level Pressure 29.94 in    
Wind  
Wind Speed 13 mph (NNW)    
Max Wind Speed 25 mph    
Max Gust Speed 34 mph    
Visibility 10 miles    
Events      
Averages and records for this station are not official NWS values.
T = Trace of Precipitation, MM = Missing Value Source: NWS Daily Summary

Daily Weather History Graph

Daily Weather History Graph

Search for Another Location

Airport or City:

Trip Planner

Search our weather history database for the weather conditions in past years. The results will help you decide how hot, cold, wet, or windy it might be!

Date:

Astronomy

Mar. 16, 2014 Rise Set
Actual Time 7:41 AM CDT 7:41 PM CDT
Civil Twilight 7:17 AM CDT 8:05 PM CDT
Nautical Twilight 6:49 AM CDT 8:33 PM CDT
Astronomical Twilight 6:21 AM CDT 9:02 PM CDT
Moon 7:57 PM CDT (3/16) 7:27 AM CDT (3/16)
Length of Visible Light 12h 48m
Length of Day
12h 00m
Full, 100% of the Moon is Illuminated
Mar 16
Full
Mar 16
Full
Mar 23
Last Quarter
Mar 30
New
Apr 7
First Quarter

Hourly Weather History & Observations

Time (CDT) Temp. Windchill Dew Point Humidity Pressure Visibility Wind Dir Wind Speed Gust Speed Precip Events Conditions
12:53 AM 55.9 °F - 52.0 °F 87% 29.72 in 10.0 mi NNE 3.5 mph - N/A   Clear
1:53 AM 52.0 °F - 48.9 °F 89% 29.72 in 10.0 mi Calm Calm - N/A   Clear
2:53 AM 55.9 °F - 52.0 °F 87% 29.76 in 10.0 mi North 10.4 mph - N/A   Clear
3:53 AM 57.0 °F - 51.1 °F 81% 29.78 in 10.0 mi North 12.7 mph - N/A   Clear
4:23 AM 55.9 °F - 51.1 °F 84% 29.84 in 10.0 mi North 17.3 mph 28.8 mph N/A   Mostly Cloudy
4:53 AM 55.0 °F - 51.1 °F 86% 29.81 in 10.0 mi North 10.4 mph - N/A   Partly Cloudy
5:48 AM 55.4 °F - 50.0 °F 82% 29.88 in 10.0 mi North 10.4 mph 16.1 mph N/A   Mostly Cloudy
5:53 AM 55.0 °F - 48.9 °F 80% 29.86 in 10.0 mi North 11.5 mph 16.1 mph N/A   Mostly Cloudy
6:53 AM 55.0 °F - 48.9 °F 80% 29.86 in 10.0 mi NNW 12.7 mph 21.9 mph N/A   Overcast
7:53 AM 54.0 °F - 46.9 °F 77% 29.87 in 10.0 mi NNW 16.1 mph 26.5 mph N/A   Mostly Cloudy
8:53 AM 53.1 °F - 44.1 °F 71% 29.94 in 10.0 mi North 12.7 mph 29.9 mph N/A   Overcast
9:53 AM 51.1 °F - 39.0 °F 63% 29.99 in 10.0 mi NNW 20.7 mph 25.3 mph N/A   Mostly Cloudy
10:04 AM 53.1 °F - 39.0 °F 59% 30.01 in 10.0 mi NNW 19.6 mph 27.6 mph N/A   Scattered Clouds
10:53 AM 55.9 °F - 37.0 °F 49% 29.99 in 10.0 mi NNW 25.3 mph 31.1 mph N/A   Clear
11:53 AM 57.9 °F - 36.0 °F 44% 30.01 in 10.0 mi NNW 18.4 mph 26.5 mph N/A   Clear
12:53 PM 59.0 °F - 34.0 °F 39% 30.02 in 10.0 mi NNW 20.7 mph 31.1 mph N/A   Mostly Cloudy
1:53 PM 57.9 °F - 35.1 °F 42% 30.01 in 10.0 mi NNW 21.9 mph 29.9 mph N/A   Clear
2:53 PM 55.9 °F - 35.1 °F 45% 30.00 in 10.0 mi NNW 21.9 mph 32.2 mph N/A   Mostly Cloudy
3:53 PM 51.1 °F - 34.0 °F 52% 30.00 in 10.0 mi North 20.7 mph 32.2 mph N/A   Mostly Cloudy
4:53 PM 53.1 °F - 33.1 °F 47% 29.99 in 10.0 mi NNW 20.7 mph 28.8 mph N/A   Overcast
5:53 PM 52.0 °F - 33.1 °F 49% 29.99 in 10.0 mi North 17.3 mph 28.8 mph N/A   Overcast
6:53 PM 51.1 °F - 32.0 °F 48% 30.00 in 10.0 mi NNW 23.0 mph 34.5 mph N/A   Mostly Cloudy
7:53 PM 50.0 °F - 30.9 °F 48% 30.03 in 10.0 mi NNW 20.7 mph 28.8 mph N/A   Overcast
8:53 PM 48.9 °F - 30.9 °F 50% 30.05 in 10.0 mi NNW 17.3 mph 25.3 mph N/A   Overcast
9:53 PM 48.9 °F - 30.9 °F 50% 30.07 in 10.0 mi NNW 20.7 mph 32.2 mph N/A   Overcast
10:53 PM 46.9 °F - 30.9 °F 54% 30.08 in 10.0 mi NNW 13.8 mph 21.9 mph N/A   Overcast
11:53 PM 46.0 °F 39.3 °F 30.0 °F 54% 30.07 in 10.0 mi North 16.1 mph 26.5 mph N/A   Overcast